Time,TemperatureF,DewpointF,PressureIn,WindDirection,WindDirectionDegrees,WindSpeedMPH,WindSpeedGustMPH,Humidity,HourlyPrecipIn,Conditions,Clouds,dailyrainin,SolarRadiationWatts/m^2,SoftwareType,DateUTC
2013-05-17 00:01:00,67.3,63.0,29.90,SSE,165,3.0,6.0,86,0.00,,,0.00,0,weatherlink.com 1.10,2013-05-17 05:01:00,
2013-05-17 00:16:00,67.4,63.0,29.90,SE,145,2.0,7.0,85,0.00,,,0.00,0,weatherlink.com 1.10,2013-05-17 05:16:00,
2013-05-17 00:31:00,67.4,62.0,29.90,SSE,155,2.0,8.0,84,0.00,,,0.00,0,weatherlink.com 1.10,2013-05-17 05:31:00,
2013-05-17 00:46:00,67.4,62.0,29.90,SE,133,7.0,8.0,84,0.00,,,0.00,0,weatherlink.com 1.10,2013-05-17 05:46:00,
2013-05-17 01:01:00,67.3,62.0,29.90,South,173,4.0,5.0,84,0.00,,,0.00,0,weatherlink.com 1.10,2013-05-17 06:01:00,
2013-05-17 01:16:00,67.2,63.0,29.90,South,170,2.0,6.0,85,0.00,,,0.00,0,weatherlink.com 1.10,2013-05-17 06:16:00,
2013-05-17 01:31:00,67.0,62.0,29.90,SE,144,1.0,5.0,85,0.00,,,0.00,0,weatherlink.com 1.10,2013-05-17 06:31:00,
2013-05-17 01:46:00,66.9,63.0,29.90,SSE,151,1.0,5.0,86,0.00,,,0.00,0,weatherlink.com 1.10,2013-05-17 06:46:00,
2013-05-17 02:01:00,66.7,63.0,29.89,East,101,0.0,5.0,87,0.00,,,0.00,0,weatherlink.com 1.10,2013-05-17 07:01:00,
2013-05-17 02:16:00,66.6,63.0,29.89,SSE,151,2.0,6.0,87,0.00,,,0.00,0,weatherlink.com 1.10,2013-05-17 07:16:00,
2013-05-17 02:31:00,66.6,63.0,29.88,SSE,147,0.0,5.0,88,0.00,,,0.00,0,weatherlink.com 1.10,2013-05-17 07:31:00,
2013-05-17 02:46:00,66.6,63.0,29.88,ESE,114,0.0,4.0,88,0.00,,,0.00,0,weatherlink.com 1.10,2013-05-17 07:46:00,
2013-05-17 03:01:00,66.6,63.0,29.89,SSE,162,2.0,5.0,88,0.00,,,0.00,0,weatherlink.com 1.10,2013-05-17 08:01:00,
2013-05-17 03:16:00,66.9,64.0,29.89,SSE,147,1.0,5.0,89,0.00,,,0.00,0,weatherlink.com 1.10,2013-05-17 08:16:00,
2013-05-17 03:31:00,67.4,64.0,29.88,SSE,148,8.0,12.0,89,0.00,,,0.00,0,weatherlink.com 1.10,2013-05-17 08:31:00,
2013-05-17 03:46:00,68.1,65.0,29.88,SSW,207,7.0,13.0,88,0.00,,,0.00,0,weatherlink.com 1.10,2013-05-17 08:46:00,
2013-05-17 04:02:00,68.3,65.0,29.89,South,176,5.0,11.0,88,0.00,,,0.00,0,weatherlink.com 1.10,2013-05-17 09:02:00,
2013-05-17 04:17:00,67.9,65.0,29.89,South,177,3.0,10.0,90,0.02,,,0.02,0,weatherlink.com 1.10,2013-05-17 09:17:00,
2013-05-17 04:32:00,67.2,65.0,29.88,South,175,3.0,6.0,91,0.03,,,0.03,0,weatherlink.com 1.10,2013-05-17 09:32:00,
2013-05-17 04:47:00,66.9,65.0,29.88,South,183,3.0,5.0,92,0.03,,,0.03,0,weatherlink.com 1.10,2013-05-17 09:47:00,
2013-05-17 05:02:00,66.9,65.0,29.89,SSE,167,1.0,5.0,93,0.03,,,0.03,0,weatherlink.com 1.10,2013-05-17 10:02:00,
2013-05-17 05:17:00,66.9,65.0,29.88,SSE,165,4.0,6.0,93,0.01,,,0.03,0,weatherlink.com 1.10,2013-05-17 10:17:00,
2013-05-17 05:32:00,67.0,65.0,29.88,South,191,7.0,8.0,94,0.00,,,0.03,0,weatherlink.com 1.10,2013-05-17 10:32:00,
2013-05-17 05:47:00,67.1,65.0,29.89,SSW,203,4.0,8.0,94,0.00,,,0.03,0,weatherlink.com 1.10,2013-05-17 10:47:00,
2013-05-17 06:02:00,67.2,66.0,29.89,SSE,166,5.0,7.0,94,0.00,,,0.03,0,weatherlink.com 1.10,2013-05-17 11:02:00,
2013-05-17 06:17:00,67.1,65.0,29.89,South,184,2.0,7.0,93,0.01,,,0.04,0,weatherlink.com 1.10,2013-05-17 11:17:00,
2013-05-17 06:32:00,66.9,65.0,29.90,SW,218,10.0,11.0,93,0.04,,,0.07,5,weatherlink.com 1.10,2013-05-17 11:32:00,
2013-05-17 06:47:00,66.2,64.0,29.90,South,176,7.0,13.0,92,0.04,,,0.07,18,weatherlink.com 1.10,2013-05-17 11:47:00,
2013-05-17 07:02:00,65.8,64.0,29.91,South,176,4.0,9.0,93,0.04,,,0.07,32,weatherlink.com 1.10,2013-05-17 12:02:00,
2013-05-17 07:17:00,65.6,64.0,29.90,South,172,3.0,8.0,93,0.03,,,0.07,35,weatherlink.com 1.10,2013-05-17 12:17:00,
2013-05-17 07:32:00,65.7,64.0,29.90,SSE,164,5.0,6.0,94,0.01,,,0.08,18,weatherlink.com 1.10,2013-05-17 12:32:00,
2013-05-17 07:47:00,65.7,64.0,29.90,SSE,168,3.0,9.0,94,0.01,,,0.08,60,weatherlink.com 1.10,2013-05-17 12:47:00,
2013-05-17 08:02:00,65.7,64.0,29.90,South,171,8.0,9.0,94,0.01,,,0.08,58,weatherlink.com 1.10,2013-05-17 13:02:00,
2013-05-17 08:17:00,65.5,64.0,29.90,SSE,165,4.0,12.0,94,0.01,,,0.08,76,weatherlink.com 1.10,2013-05-17 13:17:00,
2013-05-17 08:32:00,65.2,64.0,29.91,SSE,162,3.0,11.0,94,0.04,,,0.12,23,weatherlink.com 1.10,2013-05-17 13:32:00,
2013-05-17 08:47:00,65.2,64.0,29.91,SSE,166,2.0,5.0,95,0.04,,,0.12,28,weatherlink.com 1.10,2013-05-17 13:47:00,
2013-05-17 09:02:00,65.1,64.0,29.91,SSE,151,2.0,8.0,95,0.06,,,0.14,33,weatherlink.com 1.10,2013-05-17 14:02:00,
2013-05-17 09:17:00,65.1,64.0,29.91,SSE,167,2.0,5.0,95,0.07,,,0.15,42,weatherlink.com 1.10,2013-05-17 14:17:00,
2013-05-17 09:32:00,65.2,64.0,29.91,SSE,153,2.0,7.0,95,0.03,,,0.15,28,weatherlink.com 1.10,2013-05-17 14:32:00,
2013-05-17 10:02:00,65.9,65.0,29.91,South,184,3.0,9.0,96,0.02,,,0.16,53,weatherlink.com 1.10,2013-05-17 15:02:00,
2013-05-17 10:17:00,66.5,65.0,29.91,South,182,4.0,7.0,96,0.01,,,0.16,100,weatherlink.com 1.10,2013-05-17 15:17:00,
2013-05-17 10:32:00,67.1,66.0,29.91,SSW,211,8.0,8.0,96,0.01,,,0.16,77,weatherlink.com 1.10,2013-05-17 15:32:00,
2013-05-17 10:47:00,67.5,66.0,29.92,South,180,1.0,6.0,96,0.00,,,0.16,77,weatherlink.com 1.10,2013-05-17 15:47:00,
2013-05-17 11:02:00,68.0,67.0,29.91,WSW,241,3.0,7.0,96,0.00,,,0.16,179,weatherlink.com 1.10,2013-05-17 16:02:00,
2013-05-17 11:17:00,68.6,68.0,29.91,SSW,201,4.0,11.0,96,0.00,,,0.16,229,weatherlink.com 1.10,2013-05-17 16:17:00,
2013-05-17 11:32:00,69.0,68.0,29.91,WSW,242,5.0,7.0,95,0.00,,,0.16,202,weatherlink.com 1.10,2013-05-17 16:32:00,
2013-05-17 11:47:00,69.2,68.0,29.91,SW,218,3.0,10.0,94,0.00,,,0.16,156,weatherlink.com 1.10,2013-05-17 16:47:00,
2013-05-17 12:02:00,69.5,68.0,29.91,WSW,249,2.0,6.0,95,0.00,,,0.16,262,weatherlink.com 1.10,2013-05-17 17:02:00,
2013-05-17 12:17:00,69.9,68.0,29.92,NNW,344,1.0,6.0,94,0.00,,,0.16,227,weatherlink.com 1.10,2013-05-17 17:17:00,
2013-05-17 12:32:00,70.3,69.0,29.92,SSW,212,4.0,7.0,94,0.00,,,0.16,295,weatherlink.com 1.10,2013-05-17 17:32:00,
2013-05-17 12:47:00,70.3,68.0,29.92,WSW,242,2.0,10.0,92,0.00,,,0.16,230,weatherlink.com 1.10,2013-05-17 17:47:00,
2013-05-17 13:02:00,70.8,68.0,29.92,West,266,2.0,6.0,92,0.00,,,0.16,232,weatherlink.com 1.10,2013-05-17 18:02:00,
2013-05-17 13:17:00,71.3,69.0,29.91,WSW,251,2.0,9.0,91,0.00,,,0.16,413,weatherlink.com 1.10,2013-05-17 18:17:00,
2013-05-17 13:32:00,72.4,69.0,29.91,WSW,241,2.0,9.0,90,0.00,,,0.16,527,weatherlink.com 1.10,2013-05-17 18:32:00,
2013-05-17 13:48:00,73.5,70.0,29.91,WSW,248,4.0,6.0,87,0.00,,,0.16,318,weatherlink.com 1.10,2013-05-17 18:48:00,
2013-05-17 14:03:00,74.4,70.0,29.91,WNW,293,2.0,8.0,85,0.00,,,0.16,464,weatherlink.com 1.10,2013-05-17 19:03:00,
2013-05-17 14:18:00,75.8,71.0,29.90,West,266,3.0,7.0,85,0.00,,,0.16,304,weatherlink.com 1.10,2013-05-17 19:18:00,
2013-05-17 14:33:00,75.4,70.0,29.90,SW,234,6.0,8.0,82,0.00,,,0.16,394,weatherlink.com 1.10,2013-05-17 19:33:00,
2013-05-17 14:48:00,76.1,70.0,29.90,WSW,256,6.0,9.0,80,0.00,,,0.16,457,weatherlink.com 1.10,2013-05-17 19:48:00,
2013-05-17 15:03:00,76.1,69.0,29.90,WSW,239,4.0,8.0,78,0.00,,,0.16,202,weatherlink.com 1.10,2013-05-17 20:03:00,
2013-05-17 15:18:00,77.2,70.0,29.90,WNW,293,2.0,10.0,77,0.00,,,0.16,875,weatherlink.com 1.10,2013-05-17 20:18:00,
2013-05-17 15:33:00,77.7,70.0,29.89,WSW,249,3.0,10.0,76,0.00,,,0.16,833,weatherlink.com 1.10,2013-05-17 20:33:00,
2013-05-17 15:48:00,78.3,69.0,29.89,SSW,211,3.0,9.0,74,0.00,,,0.16,737,weatherlink.com 1.10,2013-05-17 20:48:00,
2013-05-17 16:03:00,78.8,68.0,29.89,WNW,291,5.0,9.0,70,0.00,,,0.16,700,weatherlink.com 1.10,2013-05-17 21:03:00,
2013-05-17 16:18:00,79.1,68.0,29.88,North,5,2.0,9.0,69,0.00,,,0.16,740,weatherlink.com 1.10,2013-05-17 21:18:00,
2013-05-17 16:33:00,79.3,67.0,29.88,WNW,283,5.0,8.0,67,0.00,,,0.16,705,weatherlink.com 1.10,2013-05-17 21:33:00,
2013-05-17 16:48:00,79.4,67.0,29.88,NW,312,4.0,10.0,67,0.00,,,0.16,668,weatherlink.com 1.10,2013-05-17 21:48:00,
2013-05-17 17:03:00,78.9,70.0,29.88,SW,227,3.0,5.0,73,0.00,,,0.16,320,weatherlink.com 1.10,2013-05-17 22:03:00,
2013-05-17 17:18:00,79.1,68.0,29.88,West,266,3.0,8.0,68,0.00,,,0.16,371,weatherlink.com 1.10,2013-05-17 22:18:00,
2013-05-17 17:33:00,79.2,68.0,29.88,WNW,283,3.0,8.0,68,0.00,,,0.16,394,weatherlink.com 1.10,2013-05-17 22:33:00,
2013-05-17 17:48:00,79.6,68.0,29.88,WNW,292,2.0,7.0,67,0.00,,,0.16,352,weatherlink.com 1.10,2013-05-17 22:48:00,
2013-05-17 18:03:00,79.9,68.0,29.88,SW,227,2.0,4.0,68,0.00,,,0.16,329,weatherlink.com 1.10,2013-05-17 23:03:00,
2013-05-17 18:18:00,79.0,68.0,29.89,WSW,249,4.0,7.0,68,0.00,,,0.16,116,weatherlink.com 1.10,2013-05-17 23:18:00,
2013-05-17 18:33:00,77.8,68.0,29.89,WSW,245,0.0,3.0,72,0.00,,,0.16,93,weatherlink.com 1.10,2013-05-17 23:33:00,
2013-05-17 18:48:00,77.6,68.0,29.89,WSW,245,2.0,5.0,73,0.00,,,0.16,79,weatherlink.com 1.10,2013-05-17 23:48:00,
2013-05-17 19:03:00,77.2,68.0,29.89,WSW,247,2.0,2.0,74,0.00,,,0.16,54,weatherlink.com 1.10,2013-05-18 00:03:00,
2013-05-17 19:18:00,76.6,68.0,29.89,ENE,68,0.0,0.0,75,0.00,,,0.16,32,weatherlink.com 1.10,2013-05-18 00:18:00,
2013-05-17 19:33:00,76.0,68.0,29.90,SE,135,0.0,1.0,77,0.00,,,0.16,18,weatherlink.com 1.10,2013-05-18 00:33:00,
2013-05-17 19:48:00,75.2,69.0,29.90,SE,135,0.0,0.0,80,0.00,,,0.16,9,weatherlink.com 1.10,2013-05-18 00:48:00,
2013-05-17 20:03:00,73.9,68.0,29.91,WNW,296,0.0,1.0,82,0.00,,,0.16,0,weatherlink.com 1.10,2013-05-18 01:03:00,
2013-05-17 20:18:00,72.7,68.0,29.91,WSW,241,0.0,0.0,84,0.00,,,0.16,0,weatherlink.com 1.10,2013-05-18 01:18:00,
2013-05-17 20:33:00,71.7,67.0,29.91,WSW,241,0.0,0.0,86,0.00,,,0.16,0,weatherlink.com 1.10,2013-05-18 01:33:00,
2013-05-17 20:48:00,71.1,67.0,29.91,WSW,241,0.0,0.0,88,0.00,,,0.16,0,weatherlink.com 1.10,2013-05-18 01:48:00,
2013-05-17 21:03:00,70.3,67.0,29.91,WSW,241,0.0,0.0,89,0.00,,,0.16,0,weatherlink.com 1.10,2013-05-18 02:03:00,
2013-05-17 21:18:00,69.8,67.0,29.91,WSW,241,0.0,0.0,91,0.00,,,0.16,0,weatherlink.com 1.10,2013-05-18 02:18:00,
2013-05-17 21:33:00,69.3,67.0,29.92,WSW,241,0.0,0.0,92,0.00,,,0.16,0,weatherlink.com 1.10,2013-05-18 02:33:00,
2013-05-17 21:48:00,68.9,67.0,29.93,WSW,241,0.0,0.0,92,0.00,,,0.16,0,weatherlink.com 1.10,2013-05-18 02:48:00,
2013-05-17 22:03:00,68.4,66.0,29.93,WSW,241,0.0,0.0,93,0.00,,,0.16,0,weatherlink.com 1.10,2013-05-18 03:03:00,
2013-05-17 22:18:00,68.1,66.0,29.94,WSW,241,0.0,0.0,94,0.00,,,0.16,0,weatherlink.com 1.10,2013-05-18 03:18:00,
2013-05-17 22:33:00,67.9,66.0,29.94,WSW,241,0.0,0.0,94,0.00,,,0.16,0,weatherlink.com 1.10,2013-05-18 03:33:00,
2013-05-17 22:48:00,67.7,66.0,29.94,WSW,241,0.0,0.0,94,0.00,,,0.16,0,weatherlink.com 1.10,2013-05-18 03:48:00,
2013-05-17 23:03:00,67.5,66.0,29.94,WSW,241,0.0,0.0,94,0.00,,,0.16,0,weatherlink.com 1.10,2013-05-18 04:03:00,
2013-05-17 23:18:00,67.4,66.0,29.94,WSW,241,0.0,0.0,94,0.00,,,0.16,0,weatherlink.com 1.10,2013-05-18 04:18:00,
2013-05-17 23:33:00,67.0,66.0,29.94,WSW,241,0.0,0.0,95,0.00,,,0.16,0,weatherlink.com 1.10,2013-05-18 04:33:00,
2013-05-17 23:48:00,66.8,65.0,29.94,WSW,241,0.0,0.0,95,0.00,,,0.16,0,weatherlink.com 1.10,2013-05-18 04:48:00,